This is the latest recevied weather packets stored in our database for station/object KC2TER. If no packets are shown the sender has not sent any weather packets the latest 10 day(s).
| Time | Temp. | Humidity | Pressure | Rain* | Wind** | Luminosity | Snow |
|---|---|---|---|---|---|---|---|
| 1777776736 | 11.11° C | 66% | 1010.7 hPa | 0 mm | - | 0 W/m² | - |
| 1777776432 | 10.56° C | 67% | 1010.6 hPa | 0 mm | - | 0 W/m² | - |
| 1777776130 | 10.56° C | 69% | 1010.6 hPa | 0 mm | - | 0 W/m² | - |
| 1777775827 | 10.56° C | 69% | 1010.5 hPa | 0 mm | - | 0 W/m² | - |
| 1777775523 | 10.56° C | 70% | 1010.9 hPa | 0 mm | - | 0 W/m² | - |
| 1777775220 | 10.56° C | 71% | 1010.9 hPa | 0 mm | - | 0 W/m² | - |
| 1777774919 | 10.56° C | 73% | 1010.8 hPa | 0 mm | - | 0 W/m² | - |
| 1777774616 | 11.11° C | 73% | 1010.6 hPa | 0 mm | - | 0 W/m² | - |
| 1777774313 | 11.11° C | 73% | 1010.6 hPa | 0 mm | - | 0 W/m² | - |
| 1777774010 | 10.56° C | 74% | 1010.8 hPa | 0 mm | - | 0 W/m² | - |
| 1777773708 | 10.56° C | 77% | 1010.8 hPa | 0 mm | - | 0 W/m² | - |
| 1777773404 | 10.56° C | 81% | 1010.9 hPa | 0 mm | - | 0 W/m² | - |
| 1777773101 | 10.56° C | 81% | 1011 hPa | 0 mm | - | 0 W/m² | - |
| 1777772797 | 10.56° C | 82% | 1010.8 hPa | 0 mm | - | 0 W/m² | - |
| 1777772495 | 10.56° C | 82% | 1011 hPa | 0 mm | - | 0 W/m² | - |
| 1777772192 | 10.56° C | 83% | 1010.9 hPa | 0 mm | - | 0 W/m² | - |
| 1777771890 | 10.56° C | 83% | 1010.6 hPa | 0 mm | - | 0 W/m² | - |
| 1777771587 | 10.56° C | 83% | 1011 hPa | 0 mm | - | 0 W/m² | - |
| 1777771284 | 10.56° C | 83% | 1011 hPa | 0 mm | - | 0 W/m² | - |
| 1777770980 | 10.56° C | 83% | 1010.8 hPa | 0 mm | - | 0 W/m² | - |
| 1777770678 | 10.56° C | 82% | 1010.9 hPa | 0 mm | - | 0 W/m² | - |
| 1777770374 | 11.11° C | 82% | 1010.7 hPa | 0 mm | - | 0 W/m² | - |
| 1777770071 | 11.11° C | 81% | 1010.7 hPa | 0 mm | - | 0 W/m² | - |
| 1777769768 | 11.11° C | 81% | 1010.7 hPa | 0 mm | - | 0 W/m² | - |
| 1777769465 | 11.11° C | 80% | 1010.5 hPa | 0 mm | - | 0 W/m² | - |
* Rain latest hour (hover to see other rain measurements)
** Current wind speed in m/s (hover to see current wind gust speed)